Franklin, PA

7:15 PM EST on December 15, 2019 (GMT -0500)
Venango Regional

Weather History for KFKL - August, 2019

Change the Weather History Date:

Tuesday, August 20, 2019

  Actual Average Record
Temperature  
Mean Temperature 73 °F -  
Max Temperature 84 °F 81 °F 93 °F (1947)
Min Temperature 62 °F 56 °F 40 °F (1929)
Cooling Degree Days 8    
Growing Degree Days 23 (Base 50)    
Moisture  
Dew Point 65 °F    
Average Humidity 90    
Maximum Humidity 100    
Minimum Humidity 56    
Precipitation  
Precipitation 0.13 in - - ()
Sea Level Pressure  
Sea Level Pressure 30.11 in    
Wind  
Wind Speed 2 mph (SE)    
Max Wind Speed 16 mph    
Max Gust Speed 25 mph    
Visibility 5 miles    
Events Fog , Rain , Thunderstorm    
Averages and records for this station are not official NWS values.
T = Trace of Precipitation, MM = Missing Value Source: NWS Daily Summary

Daily Weather History Graph

Daily Weather History Graph

Search for Another Location

Airport or City:

Astronomy

Aug. 20, 2019 Rise Set
Actual Time 6:33 AM EDT 8:11 PM EDT
Civil Twilight 6:04 AM EDT 8:40 PM EDT
Nautical Twilight 5:28 AM EDT 9:16 PM EDT
Astronomical Twilight 4:50 AM EDT 9:53 PM EDT
Moon 10:56 PM EDT (8/20) 11:12 AM EDT (8/20)
Length of Visible Light 14h 36m
Length of Day
13h 38m
Waning Gibbous, 78% of the Moon is Illuminated
Aug 20
Waning Gibbous
Aug 23
Last Quarter
Aug 30
New
Sep 5
First Quarter
Sep 14
Full

Hourly Weather History & Observations

Time (EDT) Temp. Heat Index Dew Point Humidity Pressure Visibility Wind Dir Wind Speed Gust Speed Precip Events Conditions
12:56 AM 66.0 °F - 64.9 °F 96% 30.11 in 10.0 mi Calm Calm - N/A   Clear
1:56 AM 64.0 °F - 64.0 °F 100% 30.11 in 3.0 mi Calm Calm - N/A   Clear
1:58 AM 64.4 °F - 64.4 °F 100% 30.13 in 1.8 mi Calm Calm - N/A   Clear
2:02 AM 64.4 °F - 64.4 °F 100% 30.13 in 0.8 mi Calm Calm - N/A   Clear
2:04 AM 64.4 °F - 64.4 °F 100% 30.13 in 0.5 mi Calm Calm - N/A Fog Fog
2:23 AM 64.4 °F - 64.4 °F 100% 30.14 in 1.0 mi Calm Calm - N/A   Mist
2:27 AM 64.4 °F - 64.4 °F 100% 30.14 in 2.0 mi Calm Calm - N/A   Scattered Clouds
2:35 AM 64.4 °F - 64.4 °F 100% 30.13 in 5.0 mi Calm Calm - N/A   Partly Cloudy
2:46 AM 64.4 °F - 64.4 °F 100% 30.14 in 1.5 mi Calm Calm - N/A   Clear
2:49 AM 64.4 °F - 64.4 °F 100% 30.14 in 0.8 mi Calm Calm - N/A   Clear
2:56 AM 64.0 °F - 64.0 °F 100% 30.11 in 0.8 mi Calm Calm - N/A   Clear
3:01 AM 64.4 °F - 64.4 °F 100% 30.13 in 8.0 mi Calm Calm - N/A   Clear
3:09 AM 64.4 °F - 64.4 °F 100% 30.14 in 1.5 mi Calm Calm - N/A   Partly Cloudy
3:12 AM 64.4 °F - 64.4 °F 100% 30.14 in 0.8 mi Calm Calm - N/A   Mist
3:21 AM 64.4 °F - 62.6 °F 94% 30.14 in 0.5 mi Calm Calm - N/A Fog Fog
3:54 AM 62.6 °F - 62.6 °F 100% 30.14 in 0.8 mi Calm Calm - N/A   Overcast
3:56 AM 63.0 °F - 62.1 °F 97% 30.11 in 0.8 mi ESE 3.5 mph - N/A   Overcast
4:04 AM 62.6 °F - 62.6 °F 100% 30.14 in 1.2 mi Calm Calm - N/A   Mostly Cloudy
4:10 AM 62.6 °F - 62.6 °F 100% 30.14 in 1.8 mi Calm Calm - N/A   Mostly Cloudy
4:29 AM 62.6 °F - 62.6 °F 100% 30.14 in 2.5 mi ESE 4.6 mph - N/A   Scattered Clouds
4:42 AM 62.6 °F - 62.6 °F 100% 30.14 in 1.0 mi Calm Calm - N/A   Mist
4:47 AM 62.6 °F - 62.6 °F 100% 30.14 in 0.5 mi Calm Calm - N/A Fog Fog
4:56 AM 62.1 °F - 62.1 °F 100% 30.12 in 0.5 mi Calm Calm - N/A Fog Fog
5:11 AM 62.6 °F - 62.6 °F 100% 30.15 in 1.0 mi Calm Calm - N/A   Mist
5:15 AM 62.6 °F - 62.6 °F 100% 30.15 in 2.0 mi Calm Calm - N/A   Partly Cloudy
5:35 AM 62.6 °F - 62.6 °F 100% 30.14 in 1.8 mi NE 3.5 mph - N/A   Clear
5:37 AM 62.6 °F - 62.6 °F 100% 30.14 in 1.0 mi NE 3.5 mph - N/A   Mist
5:40 AM 62.6 °F - 62.6 °F 100% 30.14 in 0.5 mi NE 3.5 mph - N/A Fog Fog
5:56 AM 62.1 °F - 62.1 °F 100% 30.12 in 1.0 mi Calm Calm - N/A   Mostly Cloudy
6:00 AM 62.6 °F - 62.6 °F 100% 30.14 in 2.0 mi SE 3.5 mph - N/A   Mostly Cloudy
6:17 AM 62.6 °F - 62.6 °F 100% 30.14 in 1.8 mi NNE 4.6 mph - N/A   Partly Cloudy
6:22 AM 62.6 °F - 60.8 °F 94% 30.15 in 0.5 mi NNE 4.6 mph - N/A Fog Fog
6:34 AM 62.6 °F - 60.8 °F 94% 30.15 in 0.2 mi NNE 3.5 mph - N/A Fog Fog
6:56 AM 62.1 °F - 61.0 °F 96% 30.13 in 0.2 mi Calm Calm - N/A Fog Fog
7:31 AM 62.6 °F - 62.6 °F 100% 30.15 in 0.8 mi Calm Calm - N/A   Overcast
7:33 AM 62.6 °F - 62.6 °F 100% 30.15 in 1.2 mi Calm Calm - N/A   Mostly Cloudy
7:36 AM 62.6 °F - 62.6 °F 100% 30.15 in 3.0 mi Calm Calm - N/A   Mostly Cloudy
7:47 AM 64.4 °F - 64.4 °F 100% 30.15 in 10.0 mi ESE 3.5 mph - N/A   Scattered Clouds
7:56 AM 64.0 °F - 64.0 °F 100% 30.14 in 10.0 mi East 3.5 mph - N/A   Partly Cloudy
8:56 AM 69.1 °F - 64.9 °F 87% 30.13 in 10.0 mi ESE 5.8 mph - N/A   Clear
9:56 AM 75.9 °F - 68.0 °F 76% 30.12 in 10.0 mi SE 5.8 mph - N/A   Clear
10:56 AM 78.1 °F - 68.0 °F 71% 30.12 in 10.0 mi South 6.9 mph - N/A   Clear
11:56 AM 81.0 °F 84.1 °F 69.1 °F 67% 30.13 in 10.0 mi SE 8.1 mph - N/A   Scattered Clouds
12:21 PM 80.6 °F 83.2 °F 68.0 °F 65% 30.15 in 10.0 mi SSW 4.6 mph - N/A   Mostly Cloudy
12:31 PM 80.6 °F 82.7 °F 66.2 °F 61% 30.14 in 10.0 mi SW 6.9 mph - N/A   Scattered Clouds
12:56 PM 81.0 °F 83.8 °F 68.0 °F 65% 30.11 in 10.0 mi SSE 6.9 mph - N/A   Mostly Cloudy
1:56 PM 82.9 °F 85.8 °F 68.0 °F 60% 30.08 in 10.0 mi South 8.1 mph - N/A   Partly Cloudy
2:56 PM 84.0 °F 86.5 °F 66.9 °F 56% 30.08 in 10.0 mi SW 9.2 mph - N/A   Mostly Cloudy
3:56 PM 84.9 °F 88.2 °F 68.0 °F 57% 30.05 in 10.0 mi South 5.8 mph - N/A   Clear
4:56 PM 82.0 °F 84.5 °F 66.9 °F 60% 30.05 in 10.0 mi SSW 5.8 mph - N/A   Scattered Clouds
5:56 PM 81.0 °F 84.1 °F 69.1 °F 67% 30.02 in 10.0 mi South 5.8 mph - N/A   Clear
6:56 PM 81.0 °F 84.1 °F 69.1 °F 67% 30.01 in 10.0 mi South 5.8 mph - N/A   Clear
7:56 PM 79.0 °F - 70.0 °F 74% 30.00 in 10.0 mi SSE 3.5 mph - N/A   Clear
8:56 PM 77.0 °F - 69.1 °F 76% 29.98 in 10.0 mi ESE 3.5 mph - N/A   Clear
9:56 PM 73.0 °F - 70.0 °F 90% 30.00 in 10.0 mi Calm Calm - N/A   Clear
10:32 PM 75.2 °F - 69.8 °F 83% 30.02 in 10.0 mi ESE 4.6 mph - N/A Thunderstorm Scattered Clouds
10:56 PM 71.1 °F - 69.1 °F 93% 30.01 in 6.0 mi WSW 16.1 mph 25.3 mph 0.07 in Rain , Thunderstorm Heavy Thunderstorms and Rain
11:00 PM 71.6 °F - 69.8 °F 94% 30.04 in 5.0 mi SW 6.9 mph 19.6 mph 0.03 in Rain , Thunderstorm Heavy Thunderstorms and Rain
11:35 PM 68.0 °F - 66.2 °F 94% 30.03 in 10.0 mi SSW 12.7 mph - 0.06 in   Mostly Cloudy
11:56 PM 68.0 °F - 66.0 °F 93% 29.99 in 10.0 mi South 10.4 mph - 0.06 in   Mostly Cloudy